Regional Weather Roundup
Issued by NWS

Home | Current Version | Previous Version | Graphics & Text | Print | Product List | Glossary On
Versions: 1 2 3 4 5 6 7 8 9 10 11 12 13 14 15 16 17 18 19 20 21 22 23 24 25 26 27 28 29 30 31 32 33 34 35 36 37 38 39 40 41 42 43 44 45 46 47 48 49 50
000
ASUS43 KLOT 270000
RWRIL

ILLINOIS REGIONAL WEATHER ROUNDUP
NATIONAL WEATHER SERVICE CHICAGO/ROMEOVILLE IL
600 PM CST FRI DEC 26 2014

NOTE: "FAIR" INDICATES FEW OR NO CLOUDS BELOW 12,000 FEET WITH NO
SIGNIFICANT WEATHER AND/OR OBSTRUCTIONS TO VISIBILITY.

* THESE STATIONS ARE NOT UNDER NWS QUALITY CONTROL. THEY ALSO MAY NOT
  REPORT WEATHER SUCH AS PRECIPITATION OR FOG.

ILZ001-002-007-009-015-016-024-270100-
NORTHWEST ILLINOIS

CITY           SKY/WX    TMP DP  RH WIND       PRES   REMARKS
MOLINE         PTCLDY    42  36  79 S3        29.97R
6HR MIN TEMP:  41; 6HR MAX TEMP:  53;

STERLING*      MOCLDY    45  37  76 S5        29.99S
$$

ILZ003-004-008-010-011-017-018-270100-
NORTH CENTRAL ILLINOIS

CITY           SKY/WX    TMP DP  RH WIND       PRES   REMARKS
ROCKFORD       CLOUDY    44  39  82 S8        30.02R
6HR MIN TEMP:  43; 6HR MAX TEMP:  51;

FREEPORT*      CLOUDY    43  37  81 CALM      30.01R
$$

ILZ005-006-012>014-019>023-270100-
NORTHEAST ILLINOIS

CITY           SKY/WX    TMP DP  RH WIND       PRES   REMARKS
CHICAGO-OHARE  MOCLDY    43  38  82 S6        30.01R
6HR MIN TEMP:  42; 6HR MAX TEMP:  50;

CHICAGO-MIDWAY MOCLDY    50  41  71 S7        30.02R
6HR MIN TEMP:  49; 6HR MAX TEMP:  51;

AURORA         MOCLDY    42  36  79 S5        30.01R
6HR MIN TEMP:  41; 6HR MAX TEMP:  51;

WAUKEGAN       PTCLDY    40  35  83 S5        30.01R
6HR MIN TEMP:  40; 6HR MAX TEMP:  49;

DUPAGE AIRPORT CLEAR     40  36  86 S5        30.00S
6HR MIN TEMP:  36; 6HR MAX TEMP:  50;

WHEELING       PTCLDY    40  35  83 SE3       30.03R
6HR MIN TEMP:  40; 6HR MAX TEMP:  51;

NORTHERLY ISL    N/A     49  39  68 S3          N/A
$$

LMZ740>746-270100-
SOUTHERN LAKE MICHIGAN

STATION/POSITION SKY/WX   TEMP    WIND        PRES    VSBY  WAVE
                          AIR SEA DIR/SP/G                  HT/PER
                          (F)     (DEG/KT/KT) (MB)    (MI)  (FT/S)
WAUKEGAN HARBOR            46     200/  7/  7   N/A
HARRISON CRIB              49     190/ 11/ 13   N/A
BURNHAM HARBOR             49     190/  5/ 10   N/A
CALUMET HARBOR             49     170/  5/ 10 1015.6R
MICHIGAN CITY              49     160/ 10/ 12   N/A
$$

ILZ025>027-034>036-040-047-049-050-058-095>099-270100-
WEST-CENTRAL ILLINOIS

CITY           SKY/WX    TMP DP  RH WIND       PRES   REMARKS
QUINCY         CLOUDY    49  42  77 SE6       29.95S
MACOMB*        CLOUDY    47  42  82 SE5       30.00S
$$

ILZ028>032-037-038-041>044-048-051>054-059>061-270100-
CENTRAL ILLINOIS

CITY           SKY/WX    TMP DP  RH WIND       PRES   REMARKS
DECATUR        PTCLDY    48  43  82 S10       30.04F
PEORIA         CLOUDY    51  42  71 S14       30.01R
6HR MIN TEMP:  49; 6HR MAX TEMP:  54;

LINCOLN*       PTCLDY    47  42  82 S8        30.02S
SPRINGFIELD    CLOUDY    51  43  74 S12       30.02F
6HR MIN TEMP:  49; 6HR MAX TEMP:  56;

TAYLORVILLE    NOT AVBL
$$

ILZ033-039-045-046-055>057-062-063-270100-
EAST-CENTRAL ILLINOIS

CITY           SKY/WX    TMP DP  RH WIND       PRES   REMARKS
CHAMPAIGN      PTCLDY    45  41  86 S10       30.05S
DANVILLE*      PTCLDY    44  41  87 S6        30.04S
MATTOON        CLOUDY    50  44  80 S10       30.06S
$$

ILZ079-100>102-270100-
SOUTHWEST ILLINOIS

CITY           SKY/WX    TMP DP  RH WIND       PRES   REMARKS
BELLEVILLE     MOCLDY    50  45  82 S13       30.04S
CAHOKIA*       CLOUDY    55  44  66 S10       30.04R
SPARTA*        PTCLDY    48  43  81 S12       30.08R
$$

ILZ064>066-069>071-074>076-080>082-084>086-088>090-092>094-270100-
SOUTH-CENTRAL ILLINOIS

CITY           SKY/WX    TMP DP  RH WIND       PRES   REMARKS
CARBONDALE     CLOUDY    51  42  71 S9        30.11S
6HR MIN TEMP:  48; 6HR MAX TEMP:  55;

MARION         MOCLDY    50  45  81 S12       30.12R
MT. VERNON     PTCLDY    48  39  71 S5        30.09F
SALEM*         PTCLDY    52  45  75 S9        30.08S
$$

ILZ067-068-072-073-078-083-087-091-270100-
SOUTHEAST ILLINOIS

CITY           SKY/WX    TMP DP  RH WIND       PRES   REMARKS
LAWRENCEVILLE  PTCLDY    48  42  80 S10       30.11F
ROBINSON*      PTCLDY    47  41  81 S9        30.11S
CARMI*         PTCLDY    46  43  87 SE9       30.10F
$$

ABBREVIATIONS USED IN REMARKS
   TC - TEMPERATURE IN CELSIUS
  WCI - WIND CHILL INDEX
   HX - HEAT INDEX
  VSB - VISIBILITY
$$



USA.gov is the U.S. government's official web portal to all federal, state and local government web resources and services.